Weather History for Dickinson, ND

Change the Weather History Date:

Thursday, July 18, 2013

  Actual Average Record
Temperature  
Mean Temperature 74 °F 70 °F  
Max Temperature 88 °F 84 °F 105 °F (1936)
Min Temperature 59 °F 55 °F 40 °F (1912)
Degree Days  
Heating Degree Days 0 1  
Month to date heating degree days 5 24  
Since 1 June heating degree days 129 161  
Since 1 July heating degree days 5 24  
Cooling Degree Days 9 6  
Month to date cooling degree days 90 84  
Year to date cooling degree days 125 148  
Since 1 June cooling degree days 116 138  
Growing Degree Days 24 (Base 50)    
Moisture  
Dew Point 61 °F    
Average Humidity 61    
Maximum Humidity 93    
Minimum Humidity 29    
Precipitation  
Precipitation 0.00 in 0.08 in 3.19 in (2007)
Month to date precipitation 1.87 1.59  
Year to date precipitation 11.28 9.90  
Sea Level Pressure  
Sea Level Pressure 29.90 in    
Wind  
Wind Speed 10 mph (NW)    
Max Wind Speed 23 mph    
Max Gust Speed 31 mph    
Visibility 10 miles    
Events      
T = Trace of Precipitation, MM = Missing Value Source: NWS Daily Summary

Daily Weather History Graph

Daily Weather History Graph

Search for Another Location

Airport:

Trip Planner

Search our weather history database for the weather conditions in past years. The results will help you decide how hot, cold, wet, or windy it might be!

Date:

Astronomy

Jul. 18, 2013 Rise Set
Actual Time 5:15 AM MDT 8:38 PM MDT
Civil Twilight 4:38 AM MDT 9:16 PM MDT
Nautical Twilight 3:48 AM MDT 10:04 PM MDT
Astronomical Twilight 2:45 AM MDT 11:07 PM MDT
Moon 4:36 PM MDT (7/18) 1:11 AM MDT (7/18)
Length of Visible Light 16h 37m
Length of Day
15h 23m
Waxing Gibbous, 78% of the Moon is Illuminated
Jul 18
Waxing Gibbous
Jul 22
Full
Jul 29
Last Quarter
Aug 6
New
Aug 14
First Quarter

Hourly Weather History & Observations

Time (MDT) Temp. Heat Index Dew Point Humidity Pressure Visibility Wind Dir Wind Speed Gust Speed Precip Events Conditions
12:56 AM 64.9 °F - 63.0 °F 93% 29.90 in 10.0 mi Calm Calm - N/A   Clear
1:56 AM 64.9 °F - 63.0 °F 93% 29.88 in 8.0 mi Calm Calm - N/A   Clear
2:56 AM 63.0 °F - 61.0 °F 93% 29.86 in 7.0 mi WNW 4.6 mph - N/A   Clear
3:56 AM 63.0 °F - 61.0 °F 93% 29.87 in 8.0 mi NW 15.0 mph - N/A   Clear
4:56 AM 63.0 °F - 61.0 °F 93% 29.86 in 9.0 mi NW 4.6 mph - N/A   Clear
5:56 AM 64.0 °F - 61.0 °F 90% 29.88 in 10.0 mi NNW 4.6 mph - N/A   Clear
6:56 AM 66.0 °F - 63.0 °F 90% 29.89 in 10.0 mi North 4.6 mph - N/A   Clear
7:07 AM 66.2 °F - 62.6 °F 88% 29.94 in 10.0 mi North 6.9 mph - N/A   Scattered Clouds
7:22 AM 66.2 °F - 62.6 °F 88% 29.94 in 9.0 mi NNW 3.5 mph - N/A   Mostly Cloudy
7:56 AM 66.9 °F - 64.0 °F 90% 29.91 in 9.0 mi WNW 4.6 mph - N/A   Mostly Cloudy
8:31 AM 68.0 °F - 64.4 °F 88% 29.95 in 10.0 mi WNW 6.9 mph - N/A   Scattered Clouds
8:56 AM 71.1 °F - 64.9 °F 81% 29.91 in 10.0 mi West 9.2 mph - N/A   Partly Cloudy
9:56 AM 75.0 °F - 66.0 °F 73% 29.89 in 10.0 mi WNW 8.1 mph - N/A   Clear
10:56 AM 81.0 °F 83.8 °F 68.0 °F 65% 29.88 in 10.0 mi WNW 10.4 mph - N/A   Clear
11:56 AM 84.0 °F 86.5 °F 66.9 °F 56% 29.88 in 10.0 mi WNW 15.0 mph - N/A   Clear
12:56 PM 86.0 °F 89.4 °F 68.0 °F 55% 29.87 in 10.0 mi WNW 13.8 mph - N/A   Clear
1:56 PM 86.0 °F 87.6 °F 64.9 °F 49% 29.87 in 10.0 mi NW 16.1 mph - N/A   Clear
2:56 PM 86.0 °F 88.2 °F 66.0 °F 51% 29.87 in 10.0 mi NW 15.0 mph 23.0 mph N/A   Clear
3:56 PM 86.0 °F 87.6 °F 64.9 °F 49% 29.87 in 10.0 mi WNW 17.3 mph 24.2 mph N/A   Scattered Clouds
4:56 PM 84.9 °F 84.2 °F 57.9 °F 40% 29.86 in 10.0 mi WNW 18.4 mph 25.3 mph N/A   Clear
5:56 PM 84.0 °F - 48.9 °F 29% 29.86 in 10.0 mi WNW 18.4 mph 28.8 mph N/A   Clear
6:56 PM 81.0 °F - 48.0 °F 31% 29.87 in 10.0 mi WNW 13.8 mph - N/A   Clear
7:56 PM 77.0 °F - 51.1 °F 40% 29.89 in 10.0 mi NW 10.4 mph - N/A   Clear
8:56 PM 70.0 °F - 51.1 °F 51% 29.91 in 10.0 mi NW 8.1 mph - N/A   Clear
9:56 PM 68.0 °F - 55.0 °F 63% 29.95 in 10.0 mi North 10.4 mph - N/A   Clear
10:56 PM 66.0 °F - 57.0 °F 73% 29.96 in 10.0 mi NNW 5.8 mph - N/A   Clear
11:56 PM 62.1 °F - 55.9 °F 80% 29.97 in 10.0 mi NNW 4.6 mph - N/A   Clear